Preview of NWS' New Version of Forecast
This preview is not operational and should not be used for support decisions.

Regional Weather Roundup (RWR)

Issued by National Weather Service (NWS)

                            
000
ASPQ40 PGUM 251010
RWRPQ 
WEATHER ROUNDUP FOR THE MARIANAS AND MICRONESIA
NATIONAL WEATHER SERVICE TIYAN GU
800 PM CHST TUE JUN 25 2019

GUZ001>004-251100-
MARIANA ISLANDS-
  
CITY           SKY/WX    TMP DP  RH WIND       PRES   REMARKS
GUAM AIRPORT   PTCLDY    82  73  74 E9        29.91R                  
ANDERSEN AFB   PTCLDY    82  75  78 E14       29.92R                  
ROTA AIRPORT   MOCLDY    82  72  69 E14       29.91R                  
TINIAN AP      PTCLDY    82  75  78 E12       29.90R                  
SAIPAN AP      PTCLDY    82  73  74 E13       29.91R                  

$$

PMZ161-251100-
REPUBLIC OF PALAU-
  
CITY           SKY/WX    TMP DP  RH WIND       PRES   REMARKS
KOROR AP       CLOUDY    81  77  89 NE3       29.83                   
KOROR WSO      NOT AVBL                                               

$$

PMZ171>174-251100-
FEDERATED STATES OF MICRONESIA-
  
CITY           SKY/WX    TMP DP  RH WIND       PRES   REMARKS
YAP AIRPORT    CLOUDY    82  79  89 VRB5      29.82F HX  93           
CHUUK AP       CLOUDY    81  77  89 VRB3      29.84R                  
POHNPEI AP     NOT AVBL                                               
POHNPEI WSO    CLOUDY    75  75 100 CALM      29.88F                  
KOSRAE AP      NOT AVBL                                               

$$

PMZ181-251100-
REPUBLIC OF THE MARSHALL ISLANDS-
  
CITY           SKY/WX    TMP DP  RH WIND       PRES   REMARKS
KWAJALEIN AP   CLEAR     82  79  89 SE12      29.89S HX  93           
MAJURO AP      NOT AVBL                                               
MAJURO WSO     PTCLDY    82  75  78 E6        29.88R                  

$$